Regional Weather Roundup
Issued by NWS

Home | Current Version | Previous Version | Graphics & Text | Print | Product List | Glossary On
Versions: 1 2 3 4 5 6 7 8 9 10 11 12 13 14 15 16 17 18 19 20 21 22 23 24 25 26 27 28 29 30 31 32 33 34 35 36 37 38 39 40 41 42 43 44 45 46 47 48 49 50
000
ASUS43 KOAX 242302
RWRNE

WEATHER ROUNDUP FOR NEBRASKA
NATIONAL WEATHER SERVICE OMAHA NE
600 PM CDT TUE APR 24 2018

NOTES: SATELLITE DATA IS BEING USED TO AUGMENT CLOUD COVER ABOVE
       12000 FEET.
       "FAIR" INDICATES FEW OR NO CLOUDS BELOW 12,000 FEET WITH NO
       SIGNIFICANT WEATHER AND/OR OBSTRUCTIONS TO VISIBILITY.


NEZ001>004-019>022-054>056-250000-
NEBRASKA PANHANDLE

CITY           SKY/WX    TMP DP  RH WIND       PRES   REMARKS
SCOTTSBLUFF    CLOUDY    44  32  62 N10       30.41S
ALLIANCE       CLOUDY    39  29  67 N20       30.40R WCI  29
CHADRON        CLOUDY    45  29  53 NE14      30.42F
GORDON         CLOUDY    39  31  72 N14G21    30.42R WCI  31
KIMBALL        CLOUDY    40  30  66 N15       30.39R WCI  32
SIDNEY         CLOUDY    40  29  64 N21G28    30.39S WCI  30
$$

NEZ057>060-069>072-079>082-250000-
SOUTHWEST NEBRASKA

CITY           SKY/WX    TMP DP  RH WIND       PRES   REMARKS
NORTH PLATTE   CLOUDY    41  35  79 N17G29    30.35R
IMPERIAL       CLOUDY    42  35  76 N24G33    30.36R
LEXINGTON      CLOUDY    43  38  83 N22G30    30.30R
MCCOOK         CLOUDY    45  37  73 N22G31    30.32R
OGALLALA       CLOUDY    42  34  72 N25       30.37S
$$

NEZ005>010-023>029-035>040-094-250000-
NORTH CENTRAL NEBRASKA

CITY           SKY/WX    TMP DP  RH WIND       PRES   REMARKS
VALENTINE      LGT RAIN  39  36  89 N16G29    30.39R WCI  30
AINSWORTH      DRIZZLE   37  37 100 N21G26    30.36S WCI  26
BROKEN BOW     LGT RAIN  41  38  89 N22G38    30.29R
O`NEILL        CLOUDY    44  43  96 N21G26    30.30R FOG
ORD            CLOUDY    44  42  93 N20       30.26R FOG
THEDFORD       DRIZZLE   38  36  94 N18G24    30.36R WCI  28
$$

NEZ041-046>049-061>064-073>077-083>087-250000-
SOUTH CENTRAL NEBRASKA

CITY           SKY/WX    TMP DP  RH WIND       PRES   REMARKS
GRAND ISLAND   CLOUDY    47  45  93 NW16      30.23S
AURORA         LGT RAIN  47  46  94 NW15      30.22S
HASTINGS       CLOUDY    46  44  93 NW17      30.23F
HEBRON         CLOUDY    50  47  90 NW9       30.22F
HOLDREGE       CLOUDY    43  40  91 N16G26    30.27S
KEARNEY        CLOUDY    44  41  89 NW18      30.26S
YORK           LGT RAIN  48  48 100 N14       30.22R
$$

NEZ011>018-030>034-042>045-250000-
NORTHEAST NEBRASKA

CITY           SKY/WX    TMP DP  RH WIND       PRES   REMARKS
NORFOLK        CLOUDY    48  47  96 N12G18    30.20R
ALBION         CLOUDY    50  47  90 N18G24    30.22R
BLAIR          DRIZZLE   56  49  79 NW15G21   30.16R
COLUMBUS       LGT RAIN  50  47  89 NW12      30.22R
FREMONT        LGT RAIN  54  52  93 W10       30.20R
TEKAMAH        LGT RAIN  57  32  38 NW13      30.17R
WAYNE          RAIN      49  48  97 N13       30.22R
$$

NEZ050>053-065>068-078-088>093-250000-
SOUTHEAST NEBRASKA

CITY           SKY/WX    TMP DP  RH WIND       PRES   REMARKS
LINCOLN        LGT RAIN  52  49  89 N12       30.21S
OMAHA EPPLEY   CLOUDY    62  45  53 NW15      30.15R
BEATRICE       LGT RAIN  53  50  92 NW9       30.20R
FALLS CITY     CLOUDY    65  41  41 NW23G30   30.11R
NEBRASKA CITY  CLOUDY    62  47  57 NW22G28   30.14R
PLATTSMOUTH    CLOUDY    61  46  59 NW18G26   30.15R
$$

NEZ044-045-051>053-067-250000-
OMAHA AREA

CITY           SKY/WX    TMP DP  RH WIND       PRES   REMARKS
OMAHA EPPLEY   CLOUDY    62  45  53 NW15      30.15R
BLAIR          DRIZZLE   56  49  79 NW15G21   30.16R
FREMONT        LGT RAIN  54  52  93 W10       30.20R
MILLARD        CLOUDY    57  49  74 NW14G23   30.17R
OFFUTT AFB     CLOUDY    61  47  59 NW15      30.14R
PLATTSMOUTH    CLOUDY    61  46  59 NW18G26   30.15R
WAHOO          LGT RAIN  52  48  86 NW10      30.20R
$$




USA.gov is the U.S. government's official web portal to all federal, state and local government web resources and services.